STARLINK-30123, 56838

Orbit data source: Space-Track

STARLINK-30123, 56838 is a payload satellite owned by SpaceX/Seattle (US) in LEO that was launched on Sun, 04 Jun 2023 UTC via an FALCON 9 launch vehicle from the Air Force Eastern Test Range (AFETR). Payload-class satellites include a variety of spacecraft equipped with specific instruments for various scientific and technological missions. These include communications satellites like Starlink; space stations such as the ISS; scientific satellites like the Hubble; Earth observation satellites from companies like Planet Labs, Umbra, and HawkEye 360; GPS; miniature CubeSats for education and research; and military/defense satellites.

Loading next visibility...
Identifier
56838, 2023-079R
Orbit
LEO
Country
Flag of USUS
Related business
Manufacturer
SpaceX/Seattle
Mission
Operational Commercial Communications
Bus & Motor
STARLINK V2M, Unknown motor
Mass
730 kg wet, ~700 kg dry
Launch date (UTC)
2023-06-04 (3 years ago)
Launch vehicle
FALCON 9
Launch site
Air Force Eastern Test Range (AFETR)
Object type
Payload
Rocket body
Debris
Shape & HBR
Box + 2 Pan, 17.7 m
Radar Cross Section
33.884 m², Large (>1 m²)

Expand to show TLE details & history
Last TLE update: 2 days ago

TLE from 2 days ago
0 STARLINK-30123
1 56838U 23079R   26171.06836195  .00001384  00000-0  59851-4 0  9994
2 56838  43.0036 175.7621 0001423 280.6360  79.4331 15.27566762169406
Epoch: 2026-06-20T01:38Z
TLE epoch observation values (Epoch: 2026-06-20T01:38:26.472Z)
Latitude
-0.00005°
Longitude
-117.13654°
Altitude
482.686 km
Speed
7.626 km/s
True Right ascension
11h 43m 02s
True Declination
0° 00' 00"
Sunlit
Object was in daylight at epoch
Visualization orbit readout
Latitude
Unknown
Longitude
Unknown
Altitude
Unknown
Speed
Unknown
Apparent Right ascension
Unknown
Apparent Declination
Unknown
Sunlit
N/A
Visualization observer readout
Local Sidereal Time
21:31:15
Azimuth
Unknown
Elevation
Unknown
Doppler factor
Unknown
Orbital elements
Apogee altitude
486.01 km
Perigee altitude
484.057 km
Semi-major axis
6,863.17 km
Eccentricity
0.00014
Inclination
43.0036°
RAAN
175.7621°
Arg. of periapsis
280.636°
True anomaly
79.44913°
Mean anomaly
79.4331°
Eccentric anomaly
79.44112°
Mean motion
3.8173 °/min
Orbital period
94.31 mins
BSTAR
0.000059851
Loading maneuver chart data...
Computing Atmospheric mass density...
Loading historical data...
Loading historical data...
Loading historical data...
Loading historical data...
Loading historical data...
Loading historical data...
Loading historical data...

Documentation

Showing up to 5 results
|